{"data":{"norad_id":65098,"epoch":"2026-09-20T05:11:50.595648Z","epoch_age_seconds":144680,"freshness":"FRESH","line1":"1 65098U 25167W   26263.21655782  .00010229  00000+0  31340-3 0  9991","line2":"2 65098  53.1578 198.7794 0001506 102.5147 257.6024 15.34406545 63323","mean_motion":15.34406545,"eccentricity":0.0001506,"inclination_deg":53.1578,"raan_deg":198.7794,"arg_perigee_deg":102.5147,"mean_anomaly_deg":257.6024,"bstar":0.0003134,"rev_number":6332,"period_min":93.847357774403,"perigee_km":461.65355954641,"apogee_km":463.7140147675,"semimajor_km":6840.820787157,"source":"CELESTRAK","updated_at":"2026-09-21T09:00:35.525189Z"}}